When you browse on this site, cookies collect data to enhance your experience and personalize the content and advertising you see.
Visit our Privacy Policy to learn more. By continuing to use the site, you agree to this use of cookies and data.

Hourly Weather La Massana

Today, 4 August, Tuesday

Time Temperature Precipitation Wind Pressure Humidity
00:00 +7°C° 0 mm 2 mps 610 mmHg 92%
01:00 +7°C° 0.1 mm 2 mps 610 mmHg 92%
02:00 +6°C° 0.1 mm 2 mps 610 mmHg 92%
03:00 +6°C° 0.1 mm 2 mps 610 mmHg 93%
04:00 +6°C° 0 mm 2 mps 610 mmHg 91%
05:00 +7°C° 0 mm 2 mps 610 mmHg 89%
06:00 +7°C° 0 mm 2 mps 610 mmHg 87%
07:00 +9°C° 0 mm 2 mps 611 mmHg 74%
08:00 +12°C° 0 mm 2 mps 612 mmHg 61%
09:00 +14°C° 0 mm 2 mps 613 mmHg 48%
10:00 +15°C° 0 mm 2 mps 613 mmHg 43%
11:00 +17°C° 0 mm 2 mps 614 mmHg 37%
12:00 +18°C° 0 mm 2 mps 614 mmHg 32%
13:00 +19°C° 0 mm 2 mps 614 mmHg 33%
14:00 +19°C° 0 mm 3 mps 614 mmHg 33%
15:00 +19°C° 0 mm 3 mps 614 mmHg 34%
16:00 +17°C° 0 mm 2 mps 613 mmHg 42%
17:00 +16°C° 0 mm 2 mps 612 mmHg 50%
18:00 +14°C° 0 mm 2 mps 612 mmHg 57%
19:00 +12°C° 0 mm 2 mps 611 mmHg 64%
20:00 +9°C° 0 mm 2 mps 611 mmHg 71%
21:00 +8°C° 0 mm 1 mps 610 mmHg 78%
22:00 +8°C° 0 mm 1 mps 610 mmHg 75%
23:00 +8°C° 0 mm 1 mps 610 mmHg 72%

Tomorrow, 5 August, Wednesday

Time Temperature Precipitation Wind Pressure Humidity
00:00 +8°C° 0 mm 1 mps 610 mmHg 69%
01:00 +8°C° 0 mm 1 mps 610 mmHg 66%
02:00 +8°C° 0 mm 1 mps 610 mmHg 62%
03:00 +8°C° 0 mm 1 mps 610 mmHg 59%
04:00 +9°C° 0 mm 1 mps 610 mmHg 56%
05:00 +10°C° 0 mm 1 mps 610 mmHg 53%
06:00 +10°C° 0 mm 1 mps 610 mmHg 50%
07:00 +13°C° 0 mm 1 mps 611 mmHg 44%
08:00 +16°C° 0 mm 1 mps 613 mmHg 38%
09:00 +20°C° 0 mm 1 mps 614 mmHg 32%
10:00 +21°C° 0 mm 1 mps 614 mmHg 32%
11:00 +21°C° 0 mm 2 mps 615 mmHg 31%
12:00 +24°C° 0 mm 2 mps 615 mmHg 30%
13:00 +24°C° 0 mm 2 mps 615 mmHg 32%
14:00 +24°C° 0 mm 2 mps 614 mmHg 33%
15:00 +24°C° 0 mm 2 mps 614 mmHg 34%
16:00 +22°C° 0 mm 1 mps 614 mmHg 41%
17:00 +21°C° 0 mm 1 mps 613 mmHg 48%
18:00 +19°C° 0 mm 1 mps 612 mmHg 56%
19:00 +16°C° 0 mm 1 mps 612 mmHg 59%
20:00 +15°C° 0 mm 1 mps 612 mmHg 63%
21:00 +13°C° 0 mm 1 mps 611 mmHg 67%
22:00 +13°C° 0 mm 1 mps 611 mmHg 69%
23:00 +12°C° 0 mm 1 mps 611 mmHg 71%

Day after tomorrow, 6 August, Thursday

Time Temperature Precipitation Wind Pressure Humidity
00:00 +12°C° 0 mm 1 mps 611 mmHg 73%
01:00 +12°C° 0 mm 1 mps 611 mmHg 72%
02:00 +12°C° 0 mm 1 mps 611 mmHg 71%
03:00 +12°C° 0 mm 1 mps 611 mmHg 71%
04:00 +12°C° 0 mm 1 mps 612 mmHg 69%
05:00 +13°C° 0 mm 1 mps 612 mmHg 68%
06:00 +14°C° 0 mm 1 mps 612 mmHg 67%
07:00 +16°C° 0 mm 1 mps 614 mmHg 58%
08:00 +20°C° 0 mm 1 mps 615 mmHg 50%
09:00 +23°C° 0 mm 1 mps 616 mmHg 41%
10:00 +24°C° 0 mm 1 mps 617 mmHg 38%
11:00 +25°C° 0 mm 2 mps 617 mmHg 35%
12:00 +26°C° 0 mm 2 mps 617 mmHg 32%
13:00 +26°C° 0 mm 2 mps 617 mmHg 32%
14:00 +26°C° 0 mm 2 mps 617 mmHg 33%
15:00 +26°C° 0 mm 2 mps 617 mmHg 33%
16:00 +25°C° 0 mm 2 mps 616 mmHg 40%
17:00 +23°C° 0 mm 1 mps 616 mmHg 48%
18:00 +22°C° 0 mm 1 mps 615 mmHg 55%
19:00 +20°C° 0 mm 1 mps 615 mmHg 60%
20:00 +18°C° 0 mm 1 mps 614 mmHg 64%
21:00 +15°C° 0 mm 1 mps 614 mmHg 69%
22:00 +15°C° 0 mm 1 mps 614 mmHg 70%
23:00 +15°C° 0 mm 1 mps 614 mmHg 71%

7 August, Friday

Time Temperature Precipitation Wind Pressure Humidity
00:00 +15°C° 0 mm 1 mps 614 mmHg 73%
01:00 +15°C° 0 mm 1 mps 614 mmHg 71%
02:00 +15°C° 0 mm 1 mps 614 mmHg 70%
03:00 +15°C° 0 mm 1 mps 614 mmHg 69%
04:00 +15°C° 0 mm 1 mps 614 mmHg 67%
05:00 +16°C° 0 mm 1 mps 614 mmHg 66%
06:00 +16°C° 0 mm 1 mps 615 mmHg 64%
07:00 +20°C° 0 mm 1 mps 616 mmHg 55%
08:00 +23°C° 0 mm 1 mps 617 mmHg 46%
09:00 +26°C° 0 mm 1 mps 619 mmHg 38%
10:00 +26°C° 0 mm 1 mps 618 mmHg 36%
11:00 +27°C° 0 mm 1 mps 618 mmHg 35%
12:00 +27°C° 0 mm 2 mps 618 mmHg 33%
13:00 +26°C° 0.3 mm 2 mps 618 mmHg 39%
14:00 +25°C° 0.3 mm 3 mps 617 mmHg 46%
15:00 +24°C° 0.3 mm 3 mps 616 mmHg 52%
16:00 +21°C° 0.5 mm 3 mps 616 mmHg 58%
17:00 +20°C° 0.5 mm 2 mps 615 mmHg 63%
18:00 +18°C° 0.5 mm 2 mps 615 mmHg 69%
19:00 +17°C° 0.1 mm 2 mps 615 mmHg 66%
20:00 +17°C° 0.1 mm 2 mps 615 mmHg 64%
21:00 +16°C° 0.1 mm 2 mps 615 mmHg 61%
22:00 +16°C° 0 mm 2 mps 615 mmHg 61%
23:00 +16°C° 0 mm 2 mps 615 mmHg 60%

8 August, Saturday

Time Temperature Precipitation Wind Pressure Humidity
00:00 +16°C° 0 mm 1 mps 615 mmHg 59%
01:00 +15°C° 0.3 mm 2 mps 615 mmHg 61%
02:00 +15°C° 0.3 mm 2 mps 615 mmHg 63%
03:00 +15°C° 0.3 mm 2 mps 615 mmHg 64%
04:00 +15°C° 0.2 mm 1 mps 615 mmHg 65%
05:00 +16°C° 0.2 mm 1 mps 615 mmHg 65%
06:00 +16°C° 0.2 mm 1 mps 616 mmHg 66%
07:00 +20°C° 0 mm 1 mps 617 mmHg 59%
08:00 +22°C° 0 mm 1 mps 618 mmHg 52%
09:00 +25°C° 0 mm 1 mps 619 mmHg 44%
10:00 +26°C° 0 mm 1 mps 619 mmHg 43%
11:00 +27°C° 0 mm 2 mps 619 mmHg 41%
12:00 +27°C° 0 mm 2 mps 619 mmHg 39%
13:00 +26°C° 1.4 mm 2 mps 618 mmHg 47%
14:00 +24°C° 1.4 mm 2 mps 617 mmHg 55%
15:00 +21°C° 1.4 mm 2 mps 616 mmHg 63%
16:00 +19°C° 3 mm 2 mps 615 mmHg 71%
17:00 +17°C° 3 mm 2 mps 614 mmHg 80%
18:00 +13°C° 3 mm 3 mps 613 mmHg 88%
19:00 +13°C° 0.9 mm 3 mps 613 mmHg 86%
20:00 +14°C° 0.9 mm 2 mps 614 mmHg 85%
21:00 +14°C° 0.9 mm 2 mps 614 mmHg 83%
22:00 +14°C° 0.1 mm 2 mps 614 mmHg 80%
23:00 +14°C° 0.1 mm 1 mps 614 mmHg 76%

9 August, Sunday

Time Temperature Precipitation Wind Pressure Humidity
00:00 +14°C° 0.1 mm 1 mps 614 mmHg 73%
01:00 +14°C° 0 mm 1 mps 613 mmHg 73%
02:00 +14°C° 0 mm 1 mps 613 mmHg 73%
03:00 +14°C° 0 mm 1 mps 613 mmHg 73%
04:00 +14°C° 0 mm 1 mps 613 mmHg 72%
05:00 +15°C° 0 mm 1 mps 613 mmHg 72%
06:00 +15°C° 0 mm 1 mps 614 mmHg 72%
07:00 +19°C° 0 mm 1 mps 615 mmHg 64%
08:00 +21°C° 0 mm 1 mps 615 mmHg 55%
09:00 +24°C° 0 mm 1 mps 616 mmHg 47%
10:00 +25°C° 0.1 mm 1 mps 616 mmHg 45%
11:00 +25°C° 0.1 mm 2 mps 616 mmHg 43%
12:00 +26°C° 0.1 mm 2 mps 616 mmHg 42%
13:00 +25°C° 0.7 mm 2 mps 615 mmHg 47%
14:00 +24°C° 0.7 mm 2 mps 615 mmHg 52%
15:00 +24°C° 0.7 mm 2 mps 614 mmHg 57%
16:00 +23°C° 0.6 mm 2 mps 613 mmHg 61%
17:00 +22°C° 0.6 mm 1 mps 613 mmHg 65%
18:00 +21°C° 0.6 mm 1 mps 612 mmHg 69%
19:00 +19°C° 0 mm 1 mps 612 mmHg 71%
20:00 +18°C° 0 mm 1 mps 612 mmHg 72%
21:00 +15°C° 0 mm 1 mps 611 mmHg 74%
22:00 +15°C° 0 mm 1 mps 611 mmHg 74%
23:00 +15°C° 0 mm 1 mps 611 mmHg 74%
Show more